RYR2HE EPMO-LEMG

Flight info

Callsign RYR2HE
Flight time 3h 55m
Altitude 36000
Route EVINA DCT NAVUR N744 TUSIN DCT MIKOV DCT DETSA/N0444F350 DCT GEKBA/N0444F370 DCT VAMTU DCT KOLON DCT GANGU DCT PADKO DCT DIVKO DCT NILDU DCT NENDA N975 BCN M985 BAZAS DCT VIBAS
Aircraft B738/M-SDE3FGIJ1LRWYZ/SB1

Departure

Time 2026-05-05 13:38
Airport Warsaw Modlin Airport (EPMO)

Arrival

Time 2026-05-05 17:34
Airport Málaga-Costa del Sol Airport (LEMG)
Time Latitude Longitude Altitude Speed Heading
2026-05-05 13:07 52.44744 20.65258 337 ft 0 kts 206°
2026-05-05 13:30 52.44758 20.65269 336 ft 2 kts 206°
2026-05-05 13:30 52.44775 20.65280 337 ft 3 kts 174°
2026-05-05 13:30 52.44789 20.65270 334 ft 3 kts 108°
2026-05-05 13:31 52.44789 20.65238 333 ft 3 kts 81°
2026-05-05 13:31 52.44787 20.65216 337 ft 0 kts 81°
2026-05-05 13:33 52.44788 20.65228 337 ft 2 kts 81°
2026-05-05 13:33 52.44793 20.65274 337 ft 6 kts 81°
2026-05-05 13:33 52.44801 20.65361 337 ft 11 kts 82°
2026-05-05 13:34 52.44816 20.65525 337 ft 18 kts 83°
2026-05-05 13:34 52.44834 20.65743 335 ft 19 kts 82°
2026-05-05 13:34 52.44854 20.65957 335 ft 19 kts 82°
2026-05-05 13:34 52.44874 20.66164 337 ft 18 kts 82°
2026-05-05 13:35 52.44893 20.66363 335 ft 17 kts 81°
2026-05-05 13:35 52.44911 20.66557 335 ft 17 kts 80°
2026-05-05 13:35 52.44928 20.66742 337 ft 16 kts 82°
2026-05-05 13:35 52.44945 20.66921 337 ft 16 kts 81°
2026-05-05 13:36 52.44963 20.67052 334 ft 10 kts 56°
2026-05-05 13:36 52.45029 20.67074 337 ft 10 kts 352°
2026-05-05 13:36 52.45097 20.67058 332 ft 10 kts 351°
2026-05-05 13:36 52.45164 20.67039 334 ft 10 kts 350°
2026-05-05 13:37 52.45227 20.67011 334 ft 9 kts 346°
2026-05-05 13:37 52.45273 20.66996 336 ft 2 kts 349°
2026-05-05 13:37 52.45283 20.66991 334 ft 2 kts 335°
2026-05-05 13:37 52.45287 20.66970 337 ft 3 kts 276°
2026-05-05 13:38 52.45277 20.66845 335 ft 37 kts 263°
2026-05-05 13:38 52.45197 20.65982 336 ft 112 kts 261°
2026-05-05 13:38 52.45047 20.64399 388 ft 166 kts 259°
2026-05-05 13:38 52.44873 20.62437 1027 ft 175 kts 258°
2026-05-05 13:39 52.44664 20.60495 1850 ft 173 kts 258°
2026-05-05 13:39 52.44309 20.58486 2201 ft 198 kts 234°
2026-05-05 13:39 52.43141 20.57172 2437 ft 219 kts 192°
2026-05-05 13:39 52.41565 20.56877 2769 ft 236 kts 185°
2026-05-05 13:40 52.39861 20.56625 3063 ft 256 kts 186°
2026-05-05 13:40 52.38055 20.56342 3786 ft 261 kts 186°
2026-05-05 13:40 52.36263 20.56041 4801 ft 258 kts 187°
2026-05-05 13:40 52.34493 20.55723 5802 ft 253 kts 187°
2026-05-05 13:41 52.32753 20.55396 6718 ft 252 kts 188°
2026-05-05 13:41 52.31005 20.55055 7496 ft 256 kts 188°
2026-05-05 13:41 52.29228 20.54700 8259 ft 258 kts 189°
2026-05-05 13:41 52.27437 20.54337 9046 ft 261 kts 189°
2026-05-05 13:42 52.25619 20.53964 9820 ft 264 kts 190°
2026-05-05 13:42 52.23762 20.53578 10265 ft 280 kts 190°
2026-05-05 13:42 52.21747 20.53151 10435 ft 303 kts 190°
2026-05-05 13:42 52.19586 20.52695 10679 ft 322 kts 190°
2026-05-05 13:43 52.17335 20.52224 11231 ft 329 kts 190°
2026-05-05 13:43 52.15052 20.51749 11943 ft 332 kts 190°
2026-05-05 13:43 52.12752 20.51271 12682 ft 335 kts 191°
2026-05-05 13:43 52.10427 20.50786 13402 ft 338 kts 191°
2026-05-05 13:44 52.08080 20.50295 14023 ft 342 kts 191°
2026-05-05 13:44 52.05705 20.49798 14601 ft 346 kts 191°
2026-05-05 13:44 52.03298 20.49296 15176 ft 351 kts 191°
2026-05-05 13:44 52.00856 20.48789 15749 ft 355 kts 191°
2026-05-05 13:45 51.98390 20.48276 16344 ft 359 kts 190°
2026-05-05 13:45 51.95900 20.47755 16952 ft 363 kts 190°
2026-05-05 13:45 51.93387 20.47231 17547 ft 366 kts 190°
2026-05-05 13:45 51.90839 20.46700 18073 ft 371 kts 189°
2026-05-05 13:46 51.88261 20.46164 18553 ft 375 kts 189°
2026-05-05 13:46 51.85659 20.45624 19067 ft 378 kts 189°
2026-05-05 13:46 51.83035 20.45080 19576 ft 382 kts 189°
2026-05-05 13:46 51.80392 20.44533 20066 ft 385 kts 189°
2026-05-05 13:47 51.77719 20.43980 20551 ft 388 kts 190°
2026-05-05 13:47 51.75026 20.43424 21020 ft 392 kts 190°
2026-05-05 13:47 51.72313 20.42864 21489 ft 395 kts 190°
2026-05-05 13:47 51.69574 20.42299 21958 ft 398 kts 190°
2026-05-05 13:48 51.66777 20.41723 22412 ft 402 kts 190°
2026-05-05 13:48 51.63993 20.41151 22872 ft 405 kts 190°
2026-05-05 13:48 51.61185 20.40575 23316 ft 408 kts 190°
2026-05-05 13:48 51.58360 20.39995 23711 ft 411 kts 190°
2026-05-05 13:49 51.55514 20.39413 24099 ft 413 kts 190°
2026-05-05 13:49 51.52663 20.38830 24500 ft 414 kts 190°
2026-05-05 13:49 51.49795 20.38244 24895 ft 416 kts 190°
2026-05-05 13:49 51.46914 20.37656 25264 ft 418 kts 190°
2026-05-05 13:50 51.44023 20.37067 25608 ft 421 kts 189°
2026-05-05 13:50 51.41128 20.36259 25907 ft 422 kts 197°
2026-05-05 13:50 51.38371 20.34677 26274 ft 421 kts 206°
2026-05-05 13:50 51.35785 20.32482 26664 ft 420 kts 214°
2026-05-05 13:51 51.33421 20.29734 27028 ft 421 kts 218°
2026-05-05 13:51 51.31089 20.26879 27362 ft 423 kts 219°
2026-05-05 13:51 51.28748 20.24001 27675 ft 425 kts 219°
2026-05-05 13:51 51.26397 20.21122 27995 ft 427 kts 218°
2026-05-05 13:52 51.24025 20.18240 28307 ft 429 kts 218°
2026-05-05 13:52 51.21641 20.15366 28544 ft 433 kts 218°
2026-05-05 13:52 51.19224 20.12465 28821 ft 435 kts 218°
2026-05-05 13:52 51.16800 20.09568 29156 ft 436 kts 218°
2026-05-05 13:53 51.14370 20.06672 29585 ft 435 kts 218°
2026-05-05 13:53 51.11959 20.03797 30037 ft 432 kts 218°
2026-05-05 13:53 51.09559 20.00935 30419 ft 430 kts 218°
2026-05-05 13:53 51.07167 19.98083 30761 ft 429 kts 218°
2026-05-05 13:54 51.04782 19.95242 31096 ft 428 kts 218°
2026-05-05 13:54 51.02397 19.92410 31423 ft 427 kts 218°
2026-05-05 13:54 51.00819 19.90541 31655 ft 426 kts 218°
2026-05-05 13:54 50.98446 19.87733 32017 ft 425 kts 218°
2026-05-05 13:55 50.96079 19.84937 32345 ft 424 kts 218°
2026-05-05 13:55 50.93713 19.82146 32664 ft 423 kts 218°
2026-05-05 13:55 50.91348 19.79359 32985 ft 422 kts 218°
2026-05-05 13:55 50.88997 19.76591 33315 ft 421 kts 218°
2026-05-05 13:56 50.86617 19.73793 33625 ft 420 kts 218°
2026-05-05 13:56 50.84273 19.71040 33902 ft 419 kts 218°
2026-05-05 13:56 50.81926 19.68287 34104 ft 420 kts 218°
2026-05-05 13:56 50.79574 19.65532 34264 ft 421 kts 218°
2026-05-05 13:57 50.77220 19.62777 34489 ft 421 kts 218°
2026-05-05 13:57 50.74871 19.60033 34743 ft 420 kts 218°
2026-05-05 13:57 50.72519 19.57288 34964 ft 420 kts 218°
2026-05-05 13:57 50.70171 19.54552 35141 ft 421 kts 218°
2026-05-05 13:58 50.67818 19.51812 35333 ft 421 kts 218°
2026-05-05 13:58 50.65460 19.49071 35553 ft 420 kts 218°
2026-05-05 13:58 50.63109 19.46341 35750 ft 420 kts 218°
2026-05-05 13:58 50.60754 19.43610 35795 ft 423 kts 218°
2026-05-05 13:59 50.53605 19.35342 35815 ft 423 kts 218°
2026-05-05 14:00 50.46514 19.27173 35825 ft 420 kts 218°
2026-05-05 14:00 50.41812 19.21772 35824 ft 418 kts 218°
2026-05-05 14:01 50.37119 19.16395 35826 ft 417 kts 218°
2026-05-05 14:01 50.32433 19.11040 35826 ft 417 kts 218°
2026-05-05 14:02 50.27732 19.05679 35819 ft 419 kts 218°
2026-05-05 14:02 50.23011 19.00311 35804 ft 420 kts 218°
2026-05-05 14:03 50.18270 18.94933 35810 ft 422 kts 218°
2026-05-05 14:03 50.13506 18.89542 35805 ft 424 kts 217°
2026-05-05 14:04 50.08720 18.84141 35807 ft 426 kts 217°
2026-05-05 14:04 50.03915 18.78732 35803 ft 427 kts 217°
2026-05-05 14:05 49.99099 18.73323 35797 ft 427 kts 217°
2026-05-05 14:05 49.94249 18.67890 35802 ft 427 kts 217°
2026-05-05 14:06 49.89434 18.62507 35799 ft 426 kts 217°
2026-05-05 14:06 49.84709 18.56986 35799 ft 424 kts 224°
2026-05-05 14:07 49.80879 18.50117 35810 ft 421 kts 232°
2026-05-05 14:07 49.77220 18.43060 35817 ft 420 kts 232°
2026-05-05 14:08 49.73552 18.36058 35821 ft 419 kts 232°
2026-05-05 14:08 49.69871 18.29090 35825 ft 418 kts 232°
2026-05-05 14:09 49.66185 18.22147 35834 ft 418 kts 232°
2026-05-05 14:09 49.62492 18.15210 35831 ft 418 kts 231°
2026-05-05 14:10 49.58792 18.08279 35836 ft 418 kts 231°
2026-05-05 14:10 49.55086 18.01353 35824 ft 419 kts 231°
2026-05-05 14:11 49.51370 17.94426 35817 ft 420 kts 231°
2026-05-05 14:11 49.47639 17.87492 35814 ft 421 kts 231°
2026-05-05 14:12 49.43903 17.80565 35810 ft 421 kts 231°
2026-05-05 14:12 49.40155 17.73633 35816 ft 422 kts 231°
2026-05-05 14:13 49.36400 17.66707 35807 ft 423 kts 231°
2026-05-05 14:13 49.32632 17.59777 35813 ft 423 kts 231°
2026-05-05 14:14 49.28864 17.52863 35797 ft 423 kts 231°
2026-05-05 14:14 49.25090 17.45957 35797 ft 422 kts 231°
2026-05-05 14:15 49.21317 17.39072 35822 ft 422 kts 231°
2026-05-05 14:15 49.17544 17.32204 35812 ft 421 kts 231°
2026-05-05 14:16 49.13751 17.25317 35825 ft 420 kts 231°
2026-05-05 14:16 49.09987 17.18499 35809 ft 420 kts 231°
2026-05-05 14:17 49.06221 17.11696 35807 ft 419 kts 231°
2026-05-05 14:17 49.02451 17.04905 35801 ft 419 kts 231°
2026-05-05 14:18 48.98683 16.98133 35793 ft 419 kts 231°
2026-05-05 14:18 48.94906 16.91363 35787 ft 419 kts 231°
2026-05-05 14:19 48.91124 16.84601 35782 ft 420 kts 231°
2026-05-05 14:19 48.87340 16.77853 35782 ft 420 kts 230°
2026-05-05 14:20 48.83538 16.71086 35769 ft 421 kts 230°
2026-05-05 14:20 48.79736 16.64338 35769 ft 421 kts 230°
2026-05-05 14:21 48.76264 16.57219 35752 ft 420 kts 238°
2026-05-05 14:21 48.73151 16.49737 35746 ft 420 kts 238°
2026-05-05 14:22 48.70038 16.42244 35760 ft 419 kts 238°
2026-05-05 14:22 48.66903 16.34801 35733 ft 419 kts 238°
2026-05-05 14:23 48.63754 16.27397 35742 ft 419 kts 238°
2026-05-05 14:23 48.60597 16.20007 35738 ft 418 kts 238°
2026-05-05 14:24 48.57439 16.12640 35738 ft 418 kts 238°
2026-05-05 14:24 48.54276 16.05277 35729 ft 418 kts 238°
2026-05-05 14:25 48.51116 15.97942 35736 ft 417 kts 238°
2026-05-05 14:25 48.47948 15.90608 35730 ft 417 kts 237°
2026-05-05 14:26 48.44778 15.83290 35729 ft 417 kts 237°
2026-05-05 14:26 48.41604 15.75983 35727 ft 417 kts 237°
2026-05-05 14:27 48.38428 15.68689 35731 ft 416 kts 237°
2026-05-05 14:27 48.35249 15.61408 35739 ft 417 kts 237°
2026-05-05 14:28 48.32064 15.54135 35736 ft 416 kts 237°
2026-05-05 14:28 48.29392 15.48048 35737 ft 417 kts 237°
2026-05-05 14:29 48.25688 15.39593 35724 ft 417 kts 237°
2026-05-05 14:29 48.23005 15.33519 35736 ft 417 kts 237°
2026-05-05 14:30 48.19787 15.26270 35738 ft 417 kts 237°
2026-05-05 14:30 48.16577 15.19024 35734 ft 417 kts 237°
2026-05-05 14:31 48.13361 15.11777 35732 ft 418 kts 237°
2026-05-05 14:31 48.10139 15.04548 35745 ft 417 kts 237°
2026-05-05 14:32 48.06910 14.97330 35744 ft 417 kts 236°
2026-05-05 14:32 48.03677 14.90142 35736 ft 417 kts 236°
2026-05-05 14:33 48.00446 14.82953 35726 ft 416 kts 236°
2026-05-05 14:33 47.97216 14.75786 35729 ft 416 kts 236°
2026-05-05 14:34 47.93963 14.68589 35727 ft 415 kts 236°
2026-05-05 14:34 47.90734 14.61465 35723 ft 414 kts 236°
2026-05-05 14:35 47.87505 14.54359 35746 ft 414 kts 236°
2026-05-05 14:35 47.84273 14.47264 35735 ft 414 kts 236°
2026-05-05 14:36 47.81034 14.40168 35757 ft 415 kts 236°
2026-05-05 14:36 47.77784 14.33071 35747 ft 416 kts 236°
2026-05-05 14:37 47.74527 14.25974 35756 ft 416 kts 236°
2026-05-05 14:37 47.71261 14.18877 35765 ft 416 kts 236°
2026-05-05 14:38 47.67988 14.11782 35775 ft 417 kts 236°
2026-05-05 14:38 47.64708 14.04691 35767 ft 416 kts 236°
2026-05-05 14:39 47.61429 13.97621 35788 ft 417 kts 236°
2026-05-05 14:39 47.58141 13.90551 35795 ft 416 kts 236°
2026-05-05 14:40 47.54851 13.83493 35809 ft 416 kts 235°
2026-05-05 14:40 47.51565 13.76461 35798 ft 415 kts 235°
2026-05-05 14:41 47.48282 13.69455 35813 ft 414 kts 235°
2026-05-05 14:41 47.45009 13.62486 35816 ft 412 kts 235°
2026-05-05 14:42 47.41734 13.55532 35812 ft 412 kts 235°
2026-05-05 14:42 47.38455 13.48586 35821 ft 412 kts 236°
2026-05-05 14:43 47.35178 13.41663 35826 ft 411 kts 236°
2026-05-05 14:43 47.31896 13.34748 35844 ft 412 kts 236°
2026-05-05 14:44 47.28601 13.27821 35844 ft 413 kts 235°
2026-05-05 14:44 47.25292 13.20881 35856 ft 414 kts 235°
2026-05-05 14:45 47.21972 13.13937 35840 ft 415 kts 235°
2026-05-05 14:45 47.18650 13.07007 35855 ft 415 kts 235°
2026-05-05 14:46 47.15327 13.00092 35869 ft 413 kts 235°
2026-05-05 14:46 47.12006 12.93197 35900 ft 415 kts 235°
2026-05-05 14:47 47.08629 12.86203 36205 ft 417 kts 235°
2026-05-05 14:47 47.06956 12.82745 36507 ft 415 kts 235°
2026-05-05 14:47 47.05292 12.79310 36852 ft 411 kts 235°
2026-05-05 14:48 47.01961 12.72448 36928 ft 415 kts 235°
2026-05-05 14:48 46.98611 12.65561 36913 ft 413 kts 235°
2026-05-05 14:49 46.95284 12.58740 36950 ft 411 kts 235°
2026-05-05 14:49 46.91964 12.51926 36958 ft 411 kts 235°
2026-05-05 14:50 46.88648 12.45159 36973 ft 408 kts 235°
2026-05-05 14:50 46.85342 12.38439 37013 ft 406 kts 235°
2026-05-05 14:51 46.82040 12.31746 37029 ft 406 kts 236°
2026-05-05 14:51 46.78711 12.25067 37026 ft 407 kts 233°
2026-05-05 14:52 46.75285 12.18487 36949 ft 407 kts 233°
2026-05-05 14:52 46.71846 12.11933 36947 ft 407 kts 233°
2026-05-05 14:53 46.68415 12.05388 36976 ft 407 kts 233°
2026-05-05 14:53 46.64977 11.98824 36968 ft 408 kts 233°
2026-05-05 14:54 46.61531 11.92256 36964 ft 408 kts 233°
2026-05-05 14:54 46.58090 11.85711 36948 ft 405 kts 233°
2026-05-05 14:55 46.54677 11.79235 36987 ft 403 kts 233°
2026-05-05 14:55 46.51256 11.72759 36956 ft 403 kts 233°
2026-05-05 14:56 46.47832 11.66291 36954 ft 404 kts 233°
2026-05-05 14:56 46.44399 11.59823 36980 ft 405 kts 233°
2026-05-05 14:57 46.40949 11.53337 36963 ft 406 kts 233°
2026-05-05 14:57 46.37490 11.46852 36968 ft 407 kts 232°
2026-05-05 14:58 46.34018 11.40386 36986 ft 407 kts 232°
2026-05-05 14:58 46.30534 11.33893 36987 ft 410 kts 232°
2026-05-05 14:59 46.27026 11.27359 36988 ft 413 kts 232°
2026-05-05 14:59 46.23515 11.20779 37032 ft 412 kts 233°
2026-05-05 15:00 46.20602 11.15357 37035 ft 404 kts 232°
2026-05-05 15:00 46.16564 11.07907 37038 ft 402 kts 232°
2026-05-05 15:01 46.13130 11.01590 37070 ft 397 kts 232°
2026-05-05 15:01 46.09675 10.95229 37039 ft 408 kts 232°
2026-05-05 15:02 46.06160 10.88767 37008 ft 410 kts 232°
2026-05-05 15:02 46.03228 10.83393 37003 ft 410 kts 232°
2026-05-05 15:03 45.99705 10.76947 37000 ft 409 kts 232°
2026-05-05 15:03 45.96185 10.70524 36995 ft 409 kts 232°
2026-05-05 15:04 45.92664 10.64121 37004 ft 408 kts 232°
2026-05-05 15:04 45.89149 10.57750 36993 ft 406 kts 232°
2026-05-05 15:05 45.83908 10.48259 37005 ft 403 kts 232°
2026-05-05 15:06 45.80429 10.41967 36990 ft 403 kts 232°
2026-05-05 15:06 45.76948 10.35678 36990 ft 403 kts 232°
2026-05-05 15:07 45.73461 10.29404 36995 ft 402 kts 232°
2026-05-05 15:07 45.69951 10.23106 36987 ft 402 kts 232°
2026-05-05 15:08 45.66481 10.16894 36989 ft 402 kts 232°
2026-05-05 15:08 45.62962 10.10609 36975 ft 402 kts 232°
2026-05-05 15:09 45.59469 10.04383 36968 ft 401 kts 232°
2026-05-05 15:09 45.55983 9.98183 36990 ft 400 kts 231°
2026-05-05 15:10 45.52497 9.91997 36980 ft 400 kts 231°
2026-05-05 15:10 45.49012 9.85826 36991 ft 399 kts 231°
2026-05-05 15:11 45.45528 9.79670 36989 ft 399 kts 231°
2026-05-05 15:11 45.42038 9.73519 37082 ft 399 kts 231°
2026-05-05 15:12 45.38539 9.67364 37068 ft 400 kts 231°
2026-05-05 15:12 45.35036 9.61215 37052 ft 400 kts 231°
2026-05-05 15:13 45.31529 9.55073 37033 ft 400 kts 231°
2026-05-05 15:13 45.28018 9.48936 37022 ft 400 kts 231°
2026-05-05 15:14 45.24503 9.42807 36996 ft 400 kts 231°
2026-05-05 15:14 45.20985 9.36686 36969 ft 400 kts 231°
2026-05-05 15:15 45.17465 9.30573 36976 ft 399 kts 231°
2026-05-05 15:15 45.13951 9.24486 37002 ft 399 kts 231°
2026-05-05 15:16 45.10434 9.18406 36976 ft 399 kts 231°
2026-05-05 15:16 45.06923 9.12348 36955 ft 397 kts 231°
2026-05-05 15:17 45.03425 9.06327 36962 ft 395 kts 231°
2026-05-05 15:17 44.99940 9.00341 36961 ft 394 kts 231°
2026-05-05 15:18 44.96462 8.94379 36953 ft 392 kts 231°
2026-05-05 15:18 44.92998 8.88453 36954 ft 391 kts 231°
2026-05-05 15:19 44.89539 8.82548 36959 ft 390 kts 231°
2026-05-05 15:19 44.86061 8.76624 36987 ft 390 kts 231°
2026-05-05 15:20 44.82601 8.70742 36951 ft 389 kts 231°
2026-05-05 15:20 44.79145 8.64879 36955 ft 389 kts 231°
2026-05-05 15:21 44.75684 8.59020 36963 ft 389 kts 231°
2026-05-05 15:21 44.72216 8.53161 36957 ft 390 kts 231°
2026-05-05 15:22 44.68744 8.47307 36958 ft 390 kts 231°
2026-05-05 15:22 44.65271 8.41465 36952 ft 390 kts 231°
2026-05-05 15:23 44.61794 8.35625 36965 ft 390 kts 231°
2026-05-05 15:23 44.58303 8.29776 36972 ft 392 kts 231°
2026-05-05 15:24 44.54801 8.23919 36964 ft 392 kts 231°
2026-05-05 15:24 44.51292 8.18064 36959 ft 392 kts 231°
2026-05-05 15:25 44.47782 8.12219 36964 ft 392 kts 231°
2026-05-05 15:25 44.44270 8.06381 36959 ft 392 kts 231°
2026-05-05 15:26 44.40758 8.00556 36969 ft 391 kts 231°
2026-05-05 15:26 44.37250 7.94742 36987 ft 391 kts 230°
2026-05-05 15:27 44.33737 7.88945 36964 ft 391 kts 230°
2026-05-05 15:27 44.30228 7.83157 36960 ft 390 kts 230°
2026-05-05 15:28 44.26685 7.77430 36949 ft 389 kts 226°
2026-05-05 15:28 44.22645 7.72400 36967 ft 389 kts 223°
2026-05-05 15:29 44.18554 7.67447 36971 ft 389 kts 223°
2026-05-05 15:29 44.14514 7.62445 36945 ft 388 kts 226°
2026-05-05 15:30 44.10933 7.56873 36977 ft 387 kts 230°
2026-05-05 15:30 44.07435 7.51194 36975 ft 386 kts 230°
2026-05-05 15:31 44.03918 7.45533 36969 ft 387 kts 230°
2026-05-05 15:31 44.00373 7.39870 36959 ft 388 kts 230°
2026-05-05 15:32 43.96823 7.34219 36954 ft 388 kts 230°
2026-05-05 15:32 43.93270 7.28577 36950 ft 388 kts 230°
2026-05-05 15:33 43.89719 7.22952 36949 ft 388 kts 230°
2026-05-05 15:33 43.86163 7.17326 36950 ft 388 kts 230°
2026-05-05 15:34 43.82608 7.11713 36930 ft 387 kts 230°
2026-05-05 15:34 43.79073 7.06144 36931 ft 384 kts 230°
2026-05-05 15:35 43.75553 7.00607 36948 ft 382 kts 230°
2026-05-05 15:35 43.72283 6.94844 36955 ft 380 kts 239°
2026-05-05 15:36 43.70054 6.88224 36946 ft 381 kts 246°
2026-05-05 15:36 43.68074 6.81411 36946 ft 383 kts 246°
2026-05-05 15:37 43.66073 6.74579 36945 ft 384 kts 246°
2026-05-05 15:37 43.64054 6.67740 36943 ft 385 kts 246°
2026-05-05 15:38 43.62353 6.62003 36928 ft 386 kts 246°
2026-05-05 15:38 43.60317 6.55157 36940 ft 386 kts 246°
2026-05-05 15:39 43.58273 6.48301 36919 ft 386 kts 246°
2026-05-05 15:39 43.56218 6.41460 36925 ft 386 kts 245°
2026-05-05 15:40 43.54166 6.34613 36916 ft 386 kts 246°
2026-05-05 15:40 43.52116 6.27786 36919 ft 385 kts 246°
2026-05-05 15:41 43.50064 6.20968 36913 ft 385 kts 246°
2026-05-05 15:41 43.48019 6.14162 36922 ft 385 kts 246°
2026-05-05 15:42 43.45957 6.07365 36934 ft 384 kts 245°
2026-05-05 15:42 43.43894 6.00584 36926 ft 384 kts 245°
2026-05-05 15:43 43.41830 5.93810 36919 ft 384 kts 245°
2026-05-05 15:43 43.39742 5.87049 36909 ft 384 kts 245°
2026-05-05 15:44 43.37671 5.80291 36915 ft 384 kts 245°
2026-05-05 15:44 43.35597 5.73520 36915 ft 384 kts 245°
2026-05-05 15:45 43.33517 5.66755 36926 ft 385 kts 245°
2026-05-05 15:45 43.31427 5.59973 36930 ft 386 kts 245°
2026-05-05 15:46 43.29344 5.53172 36906 ft 386 kts 245°
2026-05-05 15:46 43.27240 5.46385 36914 ft 386 kts 245°
2026-05-05 15:47 43.25128 5.39607 36921 ft 386 kts 245°
2026-05-05 15:47 43.23015 5.32829 36957 ft 386 kts 245°
2026-05-05 15:48 43.20895 5.26055 36939 ft 386 kts 245°
2026-05-05 15:48 43.18774 5.19292 36926 ft 386 kts 245°
2026-05-05 15:49 43.16650 5.12534 36921 ft 386 kts 245°
2026-05-05 15:49 43.14526 5.05794 36916 ft 386 kts 245°
2026-05-05 15:50 43.12398 4.99055 36910 ft 386 kts 245°
2026-05-05 15:50 43.10265 4.92315 36917 ft 386 kts 244°
2026-05-05 15:51 43.08128 4.85583 36919 ft 386 kts 244°
2026-05-05 15:51 43.05685 4.79029 36918 ft 383 kts 235°
2026-05-05 15:52 43.02230 4.73505 36908 ft 384 kts 223°
2026-05-05 15:52 42.98223 4.68680 36909 ft 384 kts 223°
2026-05-05 15:53 42.94207 4.63879 36908 ft 384 kts 223°
2026-05-05 15:53 42.90197 4.59067 36904 ft 383 kts 223°
2026-05-05 15:54 42.86198 4.54260 36916 ft 384 kts 223°
2026-05-05 15:54 42.82193 4.49450 36908 ft 384 kts 223°
2026-05-05 15:55 42.78183 4.44640 36905 ft 384 kts 223°
2026-05-05 15:55 42.74174 4.39842 36902 ft 384 kts 223°
2026-05-05 15:56 42.70162 4.35047 36904 ft 384 kts 223°
2026-05-05 15:56 42.66149 4.30261 36909 ft 384 kts 223°
2026-05-05 15:57 42.62128 4.25473 36904 ft 384 kts 223°
2026-05-05 15:57 42.58112 4.20700 36902 ft 384 kts 223°
2026-05-05 15:58 42.54083 4.15920 36904 ft 385 kts 223°
2026-05-05 15:58 42.50054 4.11148 36895 ft 385 kts 223°
2026-05-05 15:59 42.46024 4.06383 36904 ft 384 kts 223°
2026-05-05 15:59 42.41995 4.01629 36899 ft 384 kts 223°
2026-05-05 16:00 42.37960 3.96875 36900 ft 384 kts 223°
2026-05-05 16:00 42.33934 3.92139 36857 ft 384 kts 223°
2026-05-05 16:01 42.29911 3.87414 36887 ft 383 kts 223°
2026-05-05 16:01 42.25982 3.82571 36890 ft 381 kts 229°
2026-05-05 16:02 42.22827 3.76856 36901 ft 380 kts 234°
2026-05-05 16:02 42.19769 3.71027 36899 ft 380 kts 234°
2026-05-05 16:03 42.16707 3.65211 36895 ft 381 kts 234°
2026-05-05 16:03 42.13639 3.59390 36872 ft 381 kts 234°
2026-05-05 16:04 42.10566 3.53575 36888 ft 381 kts 234°
2026-05-05 16:04 42.07465 3.47729 36895 ft 381 kts 234°
2026-05-05 16:05 42.04374 3.41917 36892 ft 382 kts 234°
2026-05-05 16:05 42.01279 3.36107 36891 ft 382 kts 234°
2026-05-05 16:06 41.98175 3.30292 36890 ft 383 kts 234°
2026-05-05 16:06 41.95065 3.24476 36891 ft 383 kts 234°
2026-05-05 16:07 41.91956 3.18674 36886 ft 383 kts 234°
2026-05-05 16:07 41.88844 3.12878 36882 ft 382 kts 234°
2026-05-05 16:08 41.85735 3.07096 36893 ft 382 kts 234°
2026-05-05 16:08 41.82626 3.01326 36898 ft 381 kts 234°
2026-05-05 16:09 41.79517 2.95567 36889 ft 381 kts 234°
2026-05-05 16:09 41.76403 2.89810 36892 ft 381 kts 234°
2026-05-05 16:10 41.73289 2.84063 36877 ft 381 kts 234°
2026-05-05 16:10 41.70176 2.78326 36880 ft 380 kts 234°
2026-05-05 16:11 41.67040 2.72631 36881 ft 380 kts 233°
2026-05-05 16:12 41.60519 2.61492 36906 ft 381 kts 232°
2026-05-05 16:13 41.52353 2.47537 36885 ft 381 kts 233°
2026-05-05 16:13 41.49086 2.41959 36902 ft 382 kts 233°
2026-05-05 16:14 41.43065 2.31708 36907 ft 382 kts 233°
2026-05-05 16:15 41.36482 2.20539 36911 ft 384 kts 232°
2026-05-05 16:16 41.29824 2.09398 36900 ft 385 kts 230°
2026-05-05 16:17 41.24458 2.01467 36911 ft 385 kts 230°
2026-05-05 16:18 41.19085 1.93562 36907 ft 384 kts 230°
2026-05-05 16:19 41.13720 1.85650 36902 ft 384 kts 230°
2026-05-05 16:19 41.08359 1.77759 36886 ft 383 kts 230°
2026-05-05 16:20 41.01225 1.67296 36891 ft 382 kts 230°
2026-05-05 16:22 40.92297 1.54248 36891 ft 381 kts 230°
2026-05-05 16:23 40.85176 1.43880 36891 ft 381 kts 230°
2026-05-05 16:23 40.79828 1.36128 36891 ft 380 kts 230°
2026-05-05 16:24 40.76266 1.30972 36890 ft 380 kts 230°
2026-05-05 16:25 40.70920 1.23251 36891 ft 380 kts 230°
2026-05-05 16:25 40.65574 1.15543 36892 ft 380 kts 230°
2026-05-05 16:26 40.58430 1.05265 36901 ft 381 kts 229°
2026-05-05 16:27 40.54851 1.00130 36896 ft 381 kts 229°
2026-05-05 16:27 40.51263 0.95002 36896 ft 381 kts 229°
2026-05-05 16:28 40.47673 0.89879 36905 ft 381 kts 229°
2026-05-05 16:28 40.44083 0.84764 36888 ft 380 kts 230°
2026-05-05 16:29 40.40499 0.79665 36901 ft 380 kts 230°
2026-05-05 16:29 40.36918 0.74577 36912 ft 379 kts 229°
2026-05-05 16:30 40.33338 0.69499 36908 ft 379 kts 229°
2026-05-05 16:30 40.29759 0.64429 36904 ft 379 kts 229°
2026-05-05 16:31 40.26181 0.59373 36906 ft 379 kts 229°
2026-05-05 16:31 40.22598 0.54322 36904 ft 377 kts 230°
2026-05-05 16:32 40.19024 0.49293 36905 ft 377 kts 230°
2026-05-05 16:32 40.15444 0.44262 36905 ft 377 kts 230°
2026-05-05 16:33 40.11865 0.39239 36903 ft 378 kts 230°
2026-05-05 16:33 40.08254 0.34180 36902 ft 378 kts 229°
2026-05-05 16:34 40.04660 0.29150 36905 ft 379 kts 229°
2026-05-05 16:34 40.01051 0.24112 36893 ft 380 kts 229°
2026-05-05 16:35 39.97440 0.19076 36887 ft 381 kts 229°
2026-05-05 16:35 39.93817 0.14030 36896 ft 382 kts 229°
2026-05-05 16:36 39.90186 0.08977 36893 ft 382 kts 229°
2026-05-05 16:36 39.86546 0.03918 36895 ft 383 kts 229°
2026-05-05 16:37 39.82904 -0.01130 36898 ft 383 kts 230°
2026-05-05 16:37 39.79230 -0.06208 36873 ft 385 kts 230°
2026-05-05 16:38 39.75556 -0.11280 36893 ft 386 kts 230°
2026-05-05 16:38 39.71862 -0.16371 36890 ft 388 kts 230°
2026-05-05 16:39 39.68147 -0.21485 36886 ft 390 kts 230°
2026-05-05 16:39 39.64416 -0.26612 36885 ft 391 kts 230°
2026-05-05 16:40 39.60674 -0.31746 36883 ft 392 kts 230°
2026-05-05 16:40 39.56924 -0.36881 36863 ft 392 kts 230°
2026-05-05 16:41 39.53183 -0.41998 36876 ft 390 kts 230°
2026-05-05 16:41 39.49453 -0.47089 36884 ft 389 kts 230°
2026-05-05 16:42 39.46036 -0.52457 36888 ft 384 kts 235°
2026-05-05 16:42 39.42847 -0.57994 36881 ft 383 kts 236°
2026-05-05 16:43 39.39653 -0.63499 36878 ft 382 kts 235°
2026-05-05 16:43 39.36427 -0.69005 36870 ft 381 kts 235°
2026-05-05 16:44 39.33222 -0.74452 36866 ft 380 kts 235°
2026-05-05 16:44 39.30022 -0.79885 36883 ft 380 kts 236°
2026-05-05 16:45 39.26818 -0.85311 36876 ft 381 kts 236°
2026-05-05 16:45 39.23602 -0.90743 36878 ft 381 kts 236°
2026-05-05 16:46 39.20376 -0.96187 36893 ft 383 kts 236°
2026-05-05 16:46 39.17136 -1.01645 36881 ft 384 kts 236°
2026-05-05 16:47 39.14432 -1.06195 36887 ft 385 kts 235°
2026-05-05 16:47 39.10617 -1.12602 36873 ft 385 kts 235°
2026-05-05 16:48 39.07902 -1.17153 36905 ft 386 kts 236°
2026-05-05 16:48 39.04621 -1.22649 36909 ft 388 kts 236°
2026-05-05 16:49 39.01329 -1.28149 36913 ft 388 kts 236°
2026-05-05 16:49 38.98025 -1.33656 36904 ft 389 kts 236°
2026-05-05 16:50 38.94712 -1.39171 36916 ft 389 kts 236°
2026-05-05 16:50 38.91401 -1.44675 36913 ft 389 kts 236°
2026-05-05 16:51 38.88093 -1.50165 36876 ft 389 kts 235°
2026-05-05 16:51 38.84768 -1.55675 36929 ft 388 kts 236°
2026-05-05 16:52 38.81467 -1.61136 36926 ft 387 kts 236°
2026-05-05 16:52 38.78168 -1.66584 36928 ft 386 kts 236°
2026-05-05 16:53 38.74873 -1.72020 36930 ft 386 kts 236°
2026-05-05 16:53 38.71577 -1.77444 36925 ft 385 kts 236°
2026-05-05 16:54 38.68281 -1.82852 36923 ft 385 kts 236°
2026-05-05 16:54 38.64987 -1.88249 36920 ft 385 kts 236°
2026-05-05 16:55 38.61692 -1.93641 36919 ft 384 kts 236°
2026-05-05 16:55 38.58399 -1.99023 36927 ft 384 kts 236°
2026-05-05 16:56 38.55109 -2.04392 36928 ft 384 kts 236°
2026-05-05 16:56 38.51815 -2.09756 36928 ft 384 kts 236°
2026-05-05 16:57 38.48524 -2.15106 36927 ft 383 kts 236°
2026-05-05 16:57 38.45230 -2.20454 36925 ft 383 kts 236°
2026-05-05 16:58 38.41933 -2.25801 36944 ft 384 kts 236°
2026-05-05 16:58 38.38634 -2.31143 36944 ft 384 kts 236°
2026-05-05 16:59 38.35269 -2.36436 36944 ft 386 kts 232°
2026-05-05 16:59 38.31568 -2.41429 36948 ft 389 kts 231°
2026-05-05 17:00 38.27814 -2.46412 36949 ft 390 kts 231°
2026-05-05 17:00 38.24070 -2.51404 36963 ft 391 kts 231°
2026-05-05 17:01 38.20321 -2.56417 36955 ft 390 kts 231°
2026-05-05 17:01 38.16574 -2.61426 36961 ft 391 kts 231°
2026-05-05 17:02 38.12826 -2.66427 36957 ft 390 kts 231°
2026-05-05 17:02 38.09085 -2.71412 36942 ft 390 kts 231°
2026-05-05 17:03 38.05342 -2.76394 36956 ft 389 kts 231°
2026-05-05 17:03 38.01595 -2.81372 36950 ft 391 kts 230°
2026-05-05 17:04 37.97837 -2.86358 36954 ft 391 kts 230°
2026-05-05 17:04 37.94102 -2.91299 36695 ft 384 kts 230°
2026-05-05 17:05 37.92272 -2.93714 36458 ft 375 kts 231°
2026-05-05 17:05 37.90475 -2.96085 36083 ft 370 kts 230°
2026-05-05 17:05 37.88702 -2.98425 35720 ft 366 kts 230°
2026-05-05 17:05 37.86951 -3.00737 35365 ft 363 kts 230°
2026-05-05 17:06 37.85209 -3.03036 34991 ft 360 kts 230°
2026-05-05 17:06 37.83479 -3.05316 34634 ft 358 kts 230°
2026-05-05 17:06 37.81762 -3.07579 34265 ft 355 kts 230°
2026-05-05 17:06 37.80055 -3.09826 33905 ft 353 kts 230°
2026-05-05 17:07 37.78357 -3.12060 33490 ft 351 kts 230°
2026-05-05 17:07 37.76651 -3.14303 33116 ft 348 kts 230°
2026-05-05 17:07 37.74979 -3.16496 32759 ft 344 kts 231°
2026-05-05 17:07 37.73326 -3.18666 32400 ft 341 kts 231°
2026-05-05 17:08 37.71698 -3.20798 32059 ft 337 kts 231°
2026-05-05 17:08 37.70069 -3.22929 31713 ft 334 kts 231°
2026-05-05 17:08 37.68461 -3.25032 31380 ft 331 kts 231°
2026-05-05 17:08 37.66870 -3.27112 31010 ft 328 kts 231°
2026-05-05 17:09 37.65289 -3.29180 30702 ft 328 kts 230°
2026-05-05 17:09 37.63688 -3.31276 30394 ft 336 kts 230°
2026-05-05 17:09 37.62059 -3.33407 30048 ft 337 kts 230°
2026-05-05 17:09 37.60437 -3.35523 29642 ft 334 kts 230°
2026-05-05 17:10 37.58828 -3.37619 29292 ft 331 kts 230°
2026-05-05 17:10 37.57241 -3.39686 28942 ft 327 kts 230°
2026-05-05 17:10 37.55665 -3.41737 28593 ft 324 kts 230°
2026-05-05 17:10 37.54102 -3.43772 28263 ft 322 kts 230°
2026-05-05 17:11 37.52552 -3.45789 27897 ft 320 kts 230°
2026-05-05 17:11 37.51005 -3.47801 27560 ft 321 kts 230°
2026-05-05 17:11 37.49440 -3.49838 27221 ft 326 kts 230°
2026-05-05 17:11 37.47862 -3.51888 26870 ft 325 kts 230°
2026-05-05 17:12 37.46291 -3.53926 26526 ft 323 kts 230°
2026-05-05 17:12 37.44731 -3.55949 26182 ft 321 kts 230°
2026-05-05 17:12 37.43179 -3.57960 25846 ft 319 kts 230°
2026-05-05 17:12 37.41635 -3.59958 25475 ft 318 kts 230°
2026-05-05 17:13 37.40066 -3.61911 25141 ft 319 kts 223°
2026-05-05 17:13 37.38131 -3.63326 24820 ft 328 kts 206°
2026-05-05 17:13 37.35910 -3.64093 24504 ft 333 kts 199°
2026-05-05 17:13 37.33634 -3.64699 24152 ft 337 kts 198°
2026-05-05 17:14 37.31319 -3.65277 23799 ft 340 kts 198°
2026-05-05 17:14 37.29004 -3.65852 23458 ft 339 kts 197°
2026-05-05 17:14 37.26695 -3.66432 23057 ft 338 kts 197°
2026-05-05 17:14 37.24406 -3.67015 22697 ft 336 kts 198°
2026-05-05 17:15 37.22118 -3.67605 22346 ft 333 kts 198°
2026-05-05 17:15 37.19857 -3.68192 22016 ft 331 kts 198°
2026-05-05 17:15 37.17607 -3.68780 21656 ft 329 kts 198°
2026-05-05 17:15 37.15372 -3.69365 21331 ft 327 kts 198°
2026-05-05 17:16 37.13156 -3.69945 21017 ft 325 kts 197°
2026-05-05 17:16 37.10950 -3.70524 20695 ft 323 kts 197°
2026-05-05 17:16 37.08758 -3.71098 20384 ft 321 kts 197°
2026-05-05 17:16 37.06576 -3.71671 20062 ft 320 kts 197°
2026-05-05 17:17 37.04406 -3.72239 19748 ft 318 kts 197°
2026-05-05 17:17 37.02238 -3.72807 19439 ft 317 kts 197°
2026-05-05 17:17 37.00087 -3.73370 19120 ft 316 kts 197°
2026-05-05 17:17 36.97939 -3.73932 18805 ft 315 kts 197°
2026-05-05 17:18 36.95801 -3.74491 18498 ft 314 kts 197°
2026-05-05 17:18 36.93665 -3.75049 18191 ft 313 kts 197°
2026-05-05 17:18 36.91533 -3.75606 17816 ft 312 kts 197°
2026-05-05 17:18 36.89409 -3.76160 17484 ft 311 kts 197°
2026-05-05 17:19 36.87299 -3.76710 17166 ft 309 kts 197°
2026-05-05 17:19 36.85203 -3.77256 16851 ft 307 kts 197°
2026-05-05 17:19 36.83117 -3.77799 16539 ft 305 kts 197°
2026-05-05 17:19 36.81046 -3.78338 16235 ft 302 kts 197°
2026-05-05 17:20 36.79002 -3.78872 15921 ft 299 kts 197°
2026-05-05 17:20 36.76979 -3.79397 15651 ft 295 kts 197°
2026-05-05 17:20 36.74972 -3.79917 15360 ft 296 kts 197°
2026-05-05 17:20 36.72949 -3.80444 15072 ft 298 kts 197°
2026-05-05 17:21 36.71051 -3.81421 14741 ft 288 kts 221°
2026-05-05 17:21 36.69623 -3.83089 14550 ft 279 kts 232°
2026-05-05 17:21 36.68415 -3.84955 14251 ft 274 kts 235°
2026-05-05 17:22 36.66116 -3.88746 13281 ft 274 kts 236°
2026-05-05 17:22 36.64980 -3.90631 12824 ft 271 kts 236°
2026-05-05 17:22 36.64241 -3.91852 12755 ft 260 kts 236°
2026-05-05 17:22 36.63186 -3.93588 12436 ft 248 kts 236°
2026-05-05 17:23 36.62130 -3.95328 11760 ft 252 kts 236°
2026-05-05 17:23 36.61072 -3.97067 11097 ft 254 kts 235°
2026-05-05 17:23 36.60002 -3.98825 10524 ft 253 kts 236°
2026-05-05 17:23 36.58949 -4.00549 10029 ft 250 kts 236°
2026-05-05 17:24 36.57901 -4.02266 9492 ft 247 kts 236°
2026-05-05 17:24 36.56861 -4.03966 8907 ft 246 kts 236°
2026-05-05 17:24 36.55819 -4.05671 8282 ft 247 kts 236°
2026-05-05 17:24 36.54778 -4.07372 7680 ft 248 kts 236°
2026-05-05 17:25 36.53728 -4.09086 7081 ft 249 kts 237°
2026-05-05 17:25 36.53037 -4.10214 6798 ft 245 kts 236°
2026-05-05 17:25 36.51636 -4.12501 6150 ft 250 kts 238°
2026-05-05 17:25 36.50586 -4.14212 5750 ft 248 kts 237°
2026-05-05 17:26 36.49551 -4.15894 5536 ft 239 kts 238°
2026-05-05 17:26 36.48565 -4.17494 5387 ft 226 kts 237°
2026-05-05 17:26 36.47658 -4.19018 5320 ft 214 kts 246°
2026-05-05 17:26 36.47375 -4.20684 5221 ft 189 kts 287°
2026-05-05 17:27 36.47999 -4.21999 5130 ft 174 kts 309°
2026-05-05 17:27 36.48709 -4.23209 4919 ft 171 kts 308°
2026-05-05 17:27 36.49449 -4.24395 4689 ft 177 kts 310°
2026-05-05 17:27 36.50229 -4.25563 4527 ft 173 kts 311°
2026-05-05 17:28 36.51004 -4.26683 4498 ft 176 kts 311°
2026-05-05 17:28 36.51825 -4.27852 4300 ft 183 kts 311°
2026-05-05 17:28 36.52656 -4.29028 4065 ft 179 kts 311°
2026-05-05 17:28 36.53467 -4.30172 3809 ft 173 kts 311°
2026-05-05 17:29 36.54258 -4.31287 3602 ft 170 kts 311°
2026-05-05 17:29 36.55041 -4.32390 3386 ft 169 kts 311°
2026-05-05 17:29 36.55812 -4.33475 3160 ft 166 kts 310°
2026-05-05 17:29 36.56565 -4.34536 2955 ft 164 kts 310°
2026-05-05 17:30 36.57324 -4.35605 2728 ft 164 kts 310°
2026-05-05 17:30 36.58077 -4.36666 2512 ft 163 kts 309°
2026-05-05 17:30 36.58816 -4.37706 2314 ft 157 kts 309°
2026-05-05 17:30 36.59528 -4.38707 2098 ft 153 kts 309°
2026-05-05 17:31 36.60245 -4.39718 1915 ft 158 kts 308°
2026-05-05 17:31 36.60966 -4.40732 1713 ft 152 kts 307°
2026-05-05 17:31 36.61648 -4.41692 1521 ft 145 kts 307°
2026-05-05 17:31 36.62310 -4.42623 1312 ft 141 kts 304°
2026-05-05 17:32 36.62963 -4.43542 1116 ft 143 kts 304°
2026-05-05 17:32 36.63622 -4.44470 937 ft 144 kts 303°
2026-05-05 17:32 36.64273 -4.45386 732 ft 136 kts 306°
2026-05-05 17:32 36.64892 -4.46268 599 ft 141 kts 309°
2026-05-05 17:33 36.65542 -4.47178 402 ft 137 kts 312°
2026-05-05 17:33 36.66168 -4.48059 171 ft 136 kts 313°
2026-05-05 17:33 36.66802 -4.48944 52 ft 136 kts 313°
2026-05-05 17:33 36.67366 -4.49733 47 ft 104 kts 311°
2026-05-05 17:34 36.67739 -4.50257 53 ft 54 kts 312°
2026-05-05 17:34 36.67932 -4.50449 51 ft 23 kts 336°
2026-05-05 17:34 36.68038 -4.50498 47 ft 14 kts 348°
2026-05-05 17:34 36.68088 -4.50443 43 ft 9 kts 77°
2026-05-05 17:35 36.68114 -4.50366 41 ft 10 kts 97°
2026-05-05 17:35 36.68076 -4.50295 39 ft 10 kts 131°
2026-05-05 17:35 36.68023 -4.50221 41 ft 13 kts 131°
2026-05-05 17:35 36.67958 -4.50129 39 ft 16 kts 131°
2026-05-05 17:36 36.67875 -4.50012 41 ft 20 kts 131°
2026-05-05 17:36 36.67785 -4.49885 41 ft 19 kts 131°
2026-05-05 17:36 36.67698 -4.49764 41 ft 18 kts 131°
2026-05-05 17:36 36.67641 -4.49683 39 ft 8 kts 129°
2026-05-05 17:37 36.67612 -4.49639 40 ft 6 kts 129°
2026-05-05 17:37 36.67604 -4.49595 41 ft 5 kts 61°
2026-05-05 17:37 36.67633 -4.49563 41 ft 6 kts 39°
2026-05-05 17:37 36.67662 -4.49532 40 ft 5 kts 41°
2026-05-05 17:38 36.67676 -4.49516 41 ft 0 kts 42°
2026-05-05 17:38 36.67677 -4.49515 41 ft 1 kts 42°
2026-05-05 17:38 36.67682 -4.49509 40 ft 1 kts 42°
2026-05-05 17:38 36.67683 -4.49508 41 ft 0 kts 42°